Weather History for Imperial, NE

Change the Weather History Date:

Friday, December 6, 2013

  Actual Average Record
Temperature  
Mean Temperature 6 °F 30 °F  
Max Temperature 14 °F 43 °F 79 °F (1939)
Min Temperature -3 °F 17 °F -15 °F (1972)
Degree Days  
Heating Degree Days 59 35  
Month to date heating degree days 240 207  
Cooling Degree Days 0 0  
Month to date cooling degree days 0 0  
Year to date cooling degree days 1166 963  
Moisture  
Dew Point -6 °F    
Average Humidity 64    
Maximum Humidity 76    
Minimum Humidity 52    
Precipitation  
Precipitation 0.00 in 0.02 in 0.45 in (1919)
Sea Level Pressure  
Sea Level Pressure 30.58 in    
Wind  
Wind Speed 4 mph (ESE)    
Max Wind Speed 10 mph    
Max Gust Speed 13 mph    
Visibility 10 miles    
Events      
T = Trace of Precipitation, MM = Missing Value Source: NWS Daily Summary

Daily Weather History Graph

Daily Weather History Graph

Search for Another Location

Airport:

Trip Planner

Search our weather history database for the weather conditions in past years. The results will help you decide how hot, cold, wet, or windy it might be!

Date:

Astronomy

Dec. 06, 2013 Rise Set
Actual Time 6:55 AM MST 4:19 PM MST
Civil Twilight 6:25 AM MST 4:50 PM MST
Nautical Twilight 5:51 AM MST 5:24 PM MST
Astronomical Twilight 5:18 AM MST 5:57 PM MST
Moon 10:02 AM MST (12/6) 8:54 PM MST (12/6)
Length of Visible Light 10h 24m
Length of Day
9h 23m
Waxing Crescent, 20% of the Moon is Illuminated
Dec 6
Waxing Crescent
Dec 9
First Quarter
Dec 17
Full
Dec 25
Last Quarter
Jan 1
New

Hourly Weather History & Observations

Time (MST) Temp. Windchill Dew Point Humidity Pressure Visibility Wind Dir Wind Speed Gust Speed Precip Events Conditions
12:53 AM 3.9 °F -9.4 °F -6.0 °F 64% 30.46 in 10.0 mi ENE 8.1 mph - N/A   Overcast
1:53 AM 1.9 °F -9.2 °F -7.1 °F 66% 30.48 in 10.0 mi ENE 5.8 mph - N/A   Mostly Cloudy
2:53 AM 1.0 °F - -8.0 °F 66% 30.50 in 10.0 mi Calm Calm - N/A   Mostly Cloudy
3:53 AM -0.0 °F -9.9 °F -8.0 °F 69% 30.50 in 10.0 mi SE 4.6 mph - N/A   Overcast
4:53 AM -0.0 °F - -8.0 °F 69% 30.51 in 10.0 mi Calm Calm - N/A   Overcast
5:53 AM -0.0 °F - -7.1 °F 72% 30.53 in 10.0 mi Calm Calm - N/A   Overcast
6:53 AM 1.0 °F -6.7 °F -7.1 °F 69% 30.55 in 7.0 mi East 3.5 mph - N/A   Overcast
7:53 AM 1.0 °F -6.7 °F -7.1 °F 69% 30.57 in 10.0 mi East 3.5 mph - N/A   Overcast
8:53 AM 1.0 °F - -6.0 °F 72% 30.60 in 6.0 mi Calm Calm - N/A   Haze
9:53 AM 5.0 °F -2.1 °F -2.9 °F 70% 30.61 in 10.0 mi Variable 3.5 mph - N/A   Scattered Clouds
10:53 AM 7.0 °F - -4.0 °F 61% 30.60 in 10.0 mi Calm Calm - N/A   Scattered Clouds
11:53 AM 9.0 °F 2.4 °F -2.9 °F 59% 30.56 in 10.0 mi Variable 3.5 mph - N/A   Overcast
12:53 PM 12.0 °F 4.1 °F -2.9 °F 51% 30.54 in 10.0 mi ENE 4.6 mph - N/A   Clear
1:53 PM 12.0 °F 5.9 °F -2.9 °F 51% 30.53 in 10.0 mi ENE 3.5 mph - N/A   Clear
2:53 PM 12.9 °F 3.8 °F -2.9 °F 49% 30.55 in 10.0 mi Variable 5.8 mph - N/A   Clear
3:53 PM 10.0 °F 1.8 °F -4.0 °F 53% 30.58 in 10.0 mi East 4.6 mph - N/A   Clear
4:53 PM 6.1 °F -5.6 °F -5.1 °F 60% 30.61 in 10.0 mi East 6.9 mph - N/A   Clear
5:53 PM 6.1 °F -7.8 °F -6.0 °F 58% 30.62 in 10.0 mi ESE 9.2 mph - N/A   Clear
6:53 PM 1.9 °F -10.6 °F -7.1 °F 66% 30.63 in 10.0 mi ESE 6.9 mph - N/A   Clear
7:53 PM -0.0 °F -11.6 °F -8.0 °F 69% 30.65 in 10.0 mi SE 5.8 mph - N/A   Clear
8:53 PM -2.0 °F -15.4 °F -9.0 °F 72% 30.67 in 10.0 mi SE 6.9 mph - N/A   Clear
9:53 PM -2.0 °F -13.9 °F -9.0 °F 72% 30.67 in 10.0 mi SE 5.8 mph - N/A   Clear
10:53 PM -2.0 °F -13.9 °F -9.0 °F 72% 30.67 in 10.0 mi ESE 5.8 mph - N/A   Clear
11:53 PM -2.0 °F -15.4 °F -8.0 °F 76% 30.65 in 10.0 mi ESE 6.9 mph - N/A   Clear